| time (UTC) | temp F | wind direction | speed MPH | gust MPH | rain 1hr in | rain 24hr in | rain mn in | humidity % | barometer mb |
| 20260508233104 | 66 | 258 | 2.0 | 11.0 | 0.00 | 0.00 | 0.00 | 40 | 1009.5 |
| 20260508231555 | 67 | 257 | 3.0 | 8.0 | 0.00 | 0.00 | 0.00 | 39 | 1009.6 |
| 20260508230058 | 67 | 206 | 3.0 | 10.0 | 0.00 | 0.00 | 0.00 | 39 | 1009.5 |
| 20260508224555 | 67 | 183 | 5.0 | 12.0 | 0.00 | 0.00 | 0.00 | 38 | 1009.2 |
| 20260508223051 | 68 | 199 | 6.0 | 13.0 | 0.00 | 0.00 | 0.00 | 38 | 1009.3 |
| 20260508221557 | 68 | 241 | 3.0 | 12.0 | 0.00 | 0.00 | 0.00 | 39 | 1009.3 |
| 20260508220056 | 68 | 216 | 4.0 | 18.0 | 0.00 | 0.00 | 0.00 | 38 | 1009.3 |
| 20260508214555 | 68 | 218 | 6.0 | 13.0 | 0.00 | 0.00 | 0.00 | 38 | 1009.6 |
| 20260508213056 | 68 | 0 | 5.0 | 14.0 | 0.00 | 0.00 | 0.00 | 39 | 1009.4 |
| 20260508211557 | 68 | 277 | 6.0 | 15.0 | 0.00 | 0.00 | 0.00 | 37 | 1009.4 |
| 20260508210057 | 68 | 217 | 9.0 | 18.0 | 0.00 | 0.00 | 0.00 | 37 | 1009.4 |
| 20260508204555 | 68 | 258 | 4.0 | 13.0 | 0.00 | 0.00 | 0.00 | 38 | 1009.2 |
| 20260508203058 | 67 | 235 | 8.0 | 20.0 | 0.00 | 0.00 | 0.00 | 40 | 1009.5 |
| 20260508201557 | 68 | 221 | 4.0 | 16.0 | 0.00 | 0.00 | 0.00 | 40 | 1009.8 |
| 20260508200057 | 68 | 209 | 5.0 | 12.0 | 0.00 | 0.00 | 0.00 | 40 | 1009.9 |
| 20260508194605 | 67 | 273 | 6.0 | 16.0 | 0.00 | 0.00 | 0.00 | 40 | 1010.2 |
| 20260508193120 | 68 | 223 | 4.0 | 15.0 | 0.00 | 0.00 | 0.00 | 45 | 1010.3 |
| 20260508191606 | 67 | 252 | 6.0 | 15.0 | 0.00 | 0.00 | 0.00 | 43 | 1010.4 |
| 20260508190110 | 67 | 232 | 7.0 | 18.0 | 0.00 | 0.00 | 0.00 | 40 | 1010.9 |
| 20260508184553 | 66 | 234 | 7.0 | 15.0 | 0.00 | 0.00 | 0.00 | 41 | 1011.0 |
| 20260508183100 | 66 | 252 | 4.0 | 15.0 | 0.00 | 0.00 | 0.00 | 43 | 1011.5 |
| 20260508181605 | 65 | 261 | 5.0 | 16.0 | 0.00 | 0.00 | 0.00 | 43 | 1011.8 |
| 20260508180058 | 66 | 215 | 6.0 | 10.0 | 0.00 | 0.00 | 0.00 | 43 | 1012.1 |
| 20260508174552 | 65 | 184 | 6.0 | 15.0 | 0.00 | 0.00 | 0.00 | 46 | 1012.4 |
| 20260508173057 | 65 | 203 | 2.0 | 17.0 | 0.00 | 0.00 | 0.00 | 45 | 1012.7 |
| 20260508171554 | 64 | 132 | 7.0 | 16.0 | 0.00 | 0.00 | 0.00 | 45 | 1012.7 |
| 20260508170100 | 64 | 221 | 6.0 | 13.0 | 0.00 | 0.00 | 0.00 | 49 | 1013.0 |
| 20260508164554 | 63 | 223 | 8.0 | 15.0 | 0.00 | 0.00 | 0.00 | 51 | 1013.3 |
| 20260508163105 | 63 | 275 | 6.0 | 13.0 | 0.00 | 0.00 | 0.00 | 51 | 1013.4 |
| 20260508161558 | 62 | 118 | 6.0 | 15.0 | 0.00 | 0.00 | 0.00 | 51 | 1013.5 |
| 20260508160055 | 63 | 242 | 4.0 | 11.0 | 0.00 | 0.00 | 0.00 | 49 | 1013.7 |
| 20260508154559 | 63 | 198 | 4.0 | 9.0 | 0.00 | 0.00 | 0.00 | 52 | 1014.0 |
| 20260508153104 | 61 | 270 | 4.0 | 10.0 | 0.00 | 0.00 | 0.00 | 52 | 1014.2 |
| 20260508151557 | 60 | 213 | 5.0 | 10.0 | 0.00 | 0.00 | 0.00 | 51 | 1014.3 |
| 20260508150055 | 60 | 196 | 4.0 | 12.0 | 0.00 | 0.00 | 0.00 | 51 | 1014.2 |
| 20260508144553 | 59 | 272 | 7.0 | 14.0 | 0.00 | 0.00 | 0.00 | 51 | 1014.2 |
| 20260508143114 | 58 | 241 | 4.0 | 11.0 | 0.00 | 0.00 | 0.00 | 59 | 1013.9 |
| 20260508141558 | 57 | 240 | 3.0 | 12.0 | 0.00 | 0.00 | 0.00 | 62 | 1014.3 |
| 20260508140112 | 55 | 189 | 3.0 | 8.0 | 0.00 | 0.00 | 0.00 | 66 | 1014.3 |
| 20260508134554 | 53 | 165 | 4.0 | 8.0 | 0.00 | 0.00 | 0.00 | 70 | 1014.1 |
| 20260508133052 | 51 | 221 | 3.0 | 7.0 | 0.00 | 0.00 | 0.00 | 74 | 1014.1 |
| 20260508131555 | 49 | 219 | 4.0 | 7.0 | 0.00 | 0.00 | 0.00 | 79 | 1014.1 |
| 20260508130053 | 47 | 200 | 4.0 | 6.0 | 0.00 | 0.00 | 0.00 | 81 | 1014.2 |
| 20260508124555 | 45 | 178 | 3.0 | 6.0 | 0.00 | 0.00 | 0.00 | 85 | 1014.3 |
| 20260508123054 | 43 | 206 | 2.0 | 7.0 | 0.00 | 0.00 | 0.00 | 89 | 1014.3 |
| 20260508121553 | 41 | 201 | 4.0 | 7.0 | 0.00 | 0.00 | 0.00 | 91 | 1014.2 |
| 20260508120113 | 40 | 210 | 3.0 | 5.0 | 0.00 | 0.00 | 0.00 | 94 | 1014.2 |
| 20260508114604 | 38 | 204 | 1.0 | 3.0 | 0.00 | 0.00 | 0.00 | 97 | 1014.0 |
| 20260508113104 | 36 | 165 | 1.0 | 2.0 | 0.00 | 0.00 | 0.00 | 97 | 1014.0 |
| 20260508111556 | 35 | 0 | 0.0 | 0.0 | 0.00 | 0.00 | 0.00 | 96 | 1013.9 |
| 20260508104550 | 35 | 0 | 0.0 | 0.0 | 0.00 | 0.00 | 0.00 | 95 | 1013.6 |
| 20260508103057 | 35 | 0 | 0.0 | 0.0 | 0.00 | 0.00 | 0.00 | 95 | 1013.7 |
| 20260508101556 | 35 | 0 | 0.0 | 0.0 | 0.00 | 0.00 | 0.00 | 96 | 1013.6 |
| 20260508100129 | 36 | 0 | 0.0 | 0.0 | 0.00 | 0.00 | 0.00 | 96 | 1013.5 |
| 20260508094559 | 35 | 0 | 0.0 | 1.0 | 0.00 | 0.00 | 0.00 | 96 | 1013.4 |
| 20260508093101 | 35 | 0 | 0.0 | 1.0 | 0.00 | 0.00 | 0.00 | 95 | 1013.4 |
| 20260508091610 | 35 | 0 | 0.0 | 0.0 | 0.00 | 0.00 | 0.00 | 95 | 1013.5 |
| 20260508090057 | 35 | 0 | 0.0 | 0.0 | 0.00 | 0.00 | 0.00 | 95 | 1013.5 |
| 20260508084554 | 35 | 0 | 0.0 | 0.0 | 0.00 | 0.00 | 0.00 | 95 | 1013.3 |
| 20260508083053 | 35 | 0 | 0.0 | 0.0 | 0.00 | 0.00 | 0.00 | 95 | 1013.2 |
| 20260508081611 | 35 | 0 | 0.0 | 0.0 | 0.00 | 0.00 | 0.00 | 94 | 1013.3 |
| 20260508080055 | 36 | 0 | 0.0 | 0.0 | 0.00 | 0.00 | 0.00 | 94 | 1013.1 |
| 20260508074559 | 36 | 0 | 0.0 | 0.0 | 0.00 | 0.00 | 0.00 | 93 | 1013.0 |
| 20260508073053 | 37 | 0 | 0.0 | 0.0 | 0.00 | 0.00 | 0.00 | 93 | 1013.0 |
| 20260508071556 | 37 | 0 | 0.0 | 0.0 | 0.00 | 0.00 | 0.00 | 93 | 1013.0 |
| 20260508070059 | 37 | 0 | 0.0 | 3.0 | 0.00 | 0.00 | 0.00 | 93 | 1013.1 |
| 20260508064555 | 37 | 0 | 0.0 | 0.0 | 0.00 | 0.00 | 0.00 | 92 | 1013.2 |
| 20260508063056 | 38 | 0 | 0.0 | 0.0 | 0.00 | 0.00 | 0.00 | 92 | 1013.4 |
| 20260508061604 | 38 | 0 | 0.0 | 0.0 | 0.00 | 0.00 | 0.00 | 91 | 1013.3 |
| 20260508060106 | 39 | 0 | 0.0 | 0.0 | 0.00 | 0.00 | 0.00 | 91 | 1013.4 |
| 20260508054638 | 39 | 0 | 0.0 | 0.0 | 0.00 | 0.00 | 0.00 | 90 | 1013.5 |
| 20260508053057 | 39 | 0 | 0.0 | 0.0 | 0.00 | 0.00 | 0.00 | 89 | 1013.5 |
| 20260508051554 | 40 | 0 | 0.0 | 0.0 | 0.00 | 0.00 | 0.00 | 88 | 1013.4 |
| 20260508050053 | 40 | 0 | 0.0 | 0.0 | 0.00 | 0.00 | 0.00 | 88 | 1013.4 |
| 20260508044554 | 40 | 0 | 0.0 | 0.0 | 0.00 | 0.00 | 0.00 | 87 | 1013.2 |
| 20260508043058 | 41 | 0 | 0.0 | 0.0 | 0.00 | 0.00 | 0.00 | 89 | 1013.3 |
| 20260508041554 | 42 | 0 | 0.0 | 0.0 | 0.00 | 0.00 | 0.00 | 88 | 1013.4 |
| 20260508040056 | 42 | 0 | 0.0 | 0.0 | 0.00 | 0.00 | 0.00 | 86 | 1013.3 |
| 20260508034553 | 43 | 0 | 0.0 | 0.0 | 0.00 | 0.00 | 0.00 | 85 | 1013.2 |
| 20260508033054 | 44 | 0 | 0.0 | 0.0 | 0.00 | 0.00 | 0.00 | 83 | 1013.3 |
| 20260508031556 | 45 | 0 | 0.0 | 0.0 | 0.00 | 0.00 | 0.00 | 81 | 1013.4 |
| 20260508030058 | 46 | 0 | 0.0 | 0.0 | 0.00 | 0.00 | 0.00 | 78 | 1013.3 |
| 20260508024605 | 47 | 0 | 0.0 | 0.0 | 0.00 | 0.00 | 0.00 | 73 | 1013.3 |
| 20260508023052 | 47 | 0 | 0.0 | 0.0 | 0.00 | 0.00 | 0.00 | 69 | 1013.2 |
| 20260508021602 | 48 | 0 | 0.0 | 1.0 | 0.00 | 0.00 | 0.00 | 68 | 1013.0 |
| 20260508020103 | 48 | 0 | 0.0 | 2.0 | 0.00 | 0.00 | 0.00 | 69 | 1012.7 |
| 20260508014606 | 48 | 36 | 0.0 | 2.0 | 0.00 | 0.00 | 0.00 | 69 | 1012.4 |
| 20260508013056 | 49 | 322 | 0.0 | 2.0 | 0.00 | 0.00 | 0.00 | 69 | 1012.3 |
| 20260508011606 | 50 | 315 | 0.0 | 2.0 | 0.00 | 0.00 | 0.00 | 61 | 1012.1 |
| 20260508010053 | 51 | 315 | 0.0 | 2.0 | 0.00 | 0.00 | 0.00 | 56 | 1011.8 |
| 20260508004553 | 53 | 311 | 0.0 | 3.0 | 0.00 | 0.00 | 0.00 | 51 | 1011.8 |
| 20260508003058 | 54 | 0 | 0.0 | 2.0 | 0.00 | 0.00 | 0.00 | 50 | 1011.5 |
| 20260508001553 | 55 | 0 | 0.0 | 3.0 | 0.00 | 0.00 | 0.00 | 48 | 1011.4 |
| 20260508000052 | 56 | 0 | 1.0 | 4.0 | 0.00 | 0.00 | 0.00 | 45 | 1011.4 |
| 20260507234553 | 57 | 344 | 1.0 | 9.0 | 0.00 | 0.00 | 0.00 | 44 | 1011.4 |